Погода Борзя

Погода Борзя : погода сейчас, прогноз погоды и архив. Всё, что Вы хотите узнать о погоде Борзя!

Хотите узнать прогноз погоды Борзя? Тогда Вам сюда: Погода Борзя

Поиск расширенной информации на нашем сайте:

Полезная информация: Описание составных частей цементного клинкера.

Другие новости

Новости СМИ2

Главная страница сайта

Новости сайта

02.10.2013

Напоминаем, что на нашем новом сайте вы можете получить высокодетализированные прогнозы погоды по пунктам России, СНГ и мира (включающие важные для авиации метеовеличины, такие как направление и скорость ветра, видимость, явления погоды, количество и форма облачности, нижняя и верхняя граница облачности), а также ознакомиться с разнообразными материалами по авиационной метеорологии и подборкой полезных ссылок на эту тему.

Сайт Метеоцентр.Азия посвящён разработке технологий оптимизации авиаметеорологического обслуживания, включая проектирование и перспективное создание нескольких автоматизированных авиаметеорологических систем:
- система выпуска высокодетальных прогностических карт явлений погоды для нижнего воздушного пространства по России и ближнему зарубежью;
- система верификации прогнозов TAF (выпускаемых синоптиками официальных АМСГ РФ и ближнего зарубежья) и AUTOTAF (выпускаемых сайтом Метеоцентр.Азия) - выявление ошибок, онлайн-сопоставление с фактической погодой METAR, автоматическое внесение коррективов в прогнозы при резком отклонении фактической погоды от прогноза, подсчёт оправдываемости прогнозов по элементам и в целом;
- система обработки, анализа и отображения авиаметеорологической информации для применения провайдерами метеорологической информации.

Рекомендуем: Патенты автора махлай сергей.

Погода Борзя - сегодня

Время (UTC), дата Ветер
(°,м/с) 
Видим.   Явления Облачность Т
(°С)
Тd
(°С)
f(%) Тe
(°С)
Pmin
(гПа)
dP
(гПа)
Po
(мм)
O2
(г/м3)
Тmin Tmax R s Состояние
почвы
06 20.03.17 290 (З) 20000 м    8/1 1000 м верхняя 
[Cu med, cong|Ci fib]
+3.2 -11.6 33 +2  1027.5  -2  709  283           
09 20.03.17 320 (СЗ) 20000 м    6/1 1000 м верхняя 
[Cu med, cong|Ci fib]
+3.4 -13.1 29 +2  1025.6  -1.5  708  283           
12 20.03.17 220 (ЮЗ) н/о    3/0 верхняя 
[Ci sp]
-1.8 -10.6 51 -3  1027.2  708  288    +3.9       
15 20.03.17 200 (Ю) н/о    н/о 
-5.1 -9.6 71 -6  1027.5  -0.7  708  291           
18 20.03.17 060 (СВ) н/о    ясно 
-12.1 -13.9 86 -12  1028.6  -1.1  707  299           
21 20.03.17 070 (В) н/о    5/0 верхняя 
[Ci fib]
-11.9 -14.4 82 -14  1028  -0.5  706  299           
00 21.03.17 050 (СВ) 20000 м    9/0 средняя, верхняя 
[Ac lent|Cc]
-8.9 -11.9 79 -11  1027  0.1  706  295  -13.7         
03 21.03.17 060 (СВ) 20000 м    5/0 средняя, верхняя 
[Ac lent|Ci fib]
+0.7 -12 38 -1  1023.8  0.1  706  285           
06 21.03.17 050 (СВ) 20000 м    9/6 1000 м средняя, верхняя 
[Cu med, cong|Ac cuf|Ci sp]
+2.3 -12.8 32 +1  1022.1  -1.1  706  283           
09 21.03.17 340 (С) 20000 м    8/3 600 м средняя, верхняя 
[Cu med, cong|Ac cuf|Ci fib]
+1.9 -14.9 28 -1  1021.8  -0.4  705  283           
12 21.03.17 340 (С) н/о    4/0 верхняя 
[Ci sp]
-3.8 -11.4 56 -6  1025.3  1.6  706  290    +2.9       
15 21.03.17 100 (В) н/о    3/0 верхняя 
[Ci sp]
-7.2 -12.7 65 -7  1027.1  0.7  707  294           
18 21.03.17 220 (ЮЗ) н/о    ясно 
-11.4 -14.5 78 -11  1029.4  0.7  707  299           
21 21.03.17 070 (В) н/о    ясно 
-14.7 -17.1 82 -15  1031.3  0.7  708  303           
00 22.03.17 тихо ()   20000 м    ясно 
-8.3 -13.5 66 -8  1029.9  0.8  709  296  -15.5         
03 22.03.17 340 (С) 20000 м    1/1 1000 м 
[Cu hum]
+1.1 -15.1 29 -2  1026.6  -0.3  708  285           
06 22.03.17 340 (С) 5{10}  20000 м    1/1 1000 м 
[Cu hum]
+2.3 -15.6 25 1025.6  -0.6  708  284           
09 22.03.17 340 (С) 20000 м    ясно 
+2.2 -15.7 25 1025.2  -0.4  708  284           
12 22.03.17 300 (СЗ) н/о    ясно 
-4.4 -14 47 -4  1028.5  1.1  708  291    +3.3       
15 22.03.17 060 (СВ) н/о    ясно 
-8.6 -12.6 73 -10  1030.9  0.9  709  296           
18 22.03.17 060 (СВ) н/о    ясно 
-11.4 -14.8 76 -11  1032.4  0.5  710  300           
21 22.03.17 070 (В) н/о    ясно 
-14.7 -17.2 81 -17  1033.8  0.2  710  304           
00 23.03.17 070 (В) 20000 м    ясно 
-10.1 -13.9 74 -12  1032.4  0.1  710  298  -15.4         
03 23.03.17 250 (З) 20000 м    6/0 верхняя 
[Ci fib]
+2.4 -13.9 29 +2  1027.8  -0.5  710  284           
06 23.03.17 320 (СЗ) 20000 м    9/0 верхняя 
[Ci sp]
+5 -15.2 22 +6  1024.9  -2  708  281           
Время (UTC), дата Ветер
(°,м/с) 
Видим.   Явления Облачность Т
(°С)
Тd
(°С)
f(%) Тe
(°С)
Pmin
(гПа)
dP
(гПа)
Po
(мм)
O2
(г/м3)
Тmin Tmax R s Состояние
почвы

Для получения пояснительной информации подведите курсор к названию столбца.

ПОГОДА Борзя - архив

Всё, что Вы хотите узнать о погоде Борзя - удобно и подробно!

Выберите нужную дату (начиная с 1 января 2015* года) и нажмите кнопку "Найти".
Будут отображены архивные сводки погоды по пункту Борзя, начиная с указанной даты.


Отображать данные в формате CSV (для использования в таблицах Excel)


Внимание! Наш архив погоды предназначен исключительно для личного некоммерческого использования в познавательных целях. Если Вам необходимы официальные справки о состоянии погоды (для производственных, юридических, коммерческих и т.п. целей), обращайтесь в органы Росгидромета.

*Примечание: данная дата относится к архиву по метеостанциям СССР (Россия, СНГ, Балтия).
Архив по метеостанциям Зарубежной Европы и Азии (кроме Китая) хранится 10 дней, по другим регионам земного шара (Китай, Африка, Америка, Австралия, Океания) - 1 день.

Борзя - район местоположения метеостанции


Название, широта, долгота, высота метеостанции:
Борзя 50.4°ш. 116.5°д. 676 м над ур. моря [Российская Федерация]

Дополнительная информация

В oтличие oт бoльшинства пoгoдных сайтoв мы публикуем пoдрoбную метеoинфoрмацию в детальнoм прoфессиoнальнoм фoрмате.

Характеристики температуры и влажнoсти вoздуха измеряются на высoте 2 м в тени вдали oт зданий и деревьев.
Скoрoсть ветра измеряется на высoте 10 м (на урoвне рoста челoвека скoрoсть ветра ниже в 1.5-2 раза). Если метеoстанция нахoдится в гoрoде или в лесу, тo скoрoсть ветра занижена на 2-4 м/с пo сравнению с oткрытым местoм. Скoрoсть ветра над акватoриями крупных рек и oзёр, а также на вершинах хoлмoв на 2-5 м/с выше, чем в oбычных услoвиях.
Атмoсфернoе давление в разных тoчках местнoсти мoжет значительнo oтличаться oт давления на метеoстанции, в зависимoсти oт услoвий рельефа (при пoдъёме на 10 м давление пoнижается примернo на 1 мм рт.ст.).